Oakes, ND

8:15 PM CDT on September 24, 2016 (GMT -0500)
Oakes

Weather History for K2D5 - May, 2013

Change the Weather History Date:

Monday, May 13, 2013

  Actual Average (KABR) Record (KABR)
Temperature  
Mean Temperature 68 °F 56 °F  
Max Temperature 89 °F 68 °F 97 °F (1932)
Min Temperature 46 °F 43 °F 24 °F (1899)
Degree Days  
Heating Degree Days 0 10  
Month to date heating degree days 153  
Since 1 July heating degree days 8324  
Cooling Degree Days 2 1  
Month to date cooling degree days 3  
Year to date cooling degree days 5  
Growing Degree Days 18 (Base 50)    
Moisture  
Dew Point 38 °F    
Average Humidity 37    
Maximum Humidity 59    
Minimum Humidity 17    
Precipitation  
Precipitation 0.00 in 0.10 in 0.82 in (1958)
Month to date precipitation 1.33  
Year to date precipitation 5.36  
Sea Level Pressure  
Sea Level Pressure 29.78 in    
Wind  
Wind Speed 14 mph (SSW)    
Max Wind Speed 31 mph    
Max Gust Speed 39 mph    
Visibility 10 miles    
Events Rain    
T = Trace of Precipitation, MM = Missing Value Source: NWS Daily Summary

Daily Weather History Graph

Daily Weather History Graph

Search for Another Location

Airport or City:

Trip Planner

Search our weather history database for the weather conditions in past years. The results will help you decide how hot, cold, wet, or windy it might be!

Date:

Astronomy

May. 13, 2013 Rise Set
Actual Time 6:01 AM CDT 8:56 PM CDT
Civil Twilight 5:26 AM CDT 9:31 PM CDT
Nautical Twilight 4:42 AM CDT 10:16 PM CDT
Astronomical Twilight 3:49 AM CDT 11:10 PM CDT
Moon 8:47 AM CDT (5/13) No Moon Set
Length of Visible Light 16h 04m
Length of Day
14h 54m
Waxing Crescent, 12% of the Moon is Illuminated
May 13
Waxing Crescent
May 17
First Quarter
May 24
Full
May 31
Last Quarter
Jun 8
New

Hourly Weather History & Observations

Time (CDT) Temp. Windchill Dew Point Humidity Pressure Visibility Wind Dir Wind Speed Gust Speed Precip Events Conditions
12:15 AM 46.4 °F 41.1 °F 28.4 °F 50% 29.98 in 10.0 mi SE 11.5 mph - N/A   Unknown
12:35 AM 46.4 °F 41.5 °F 28.4 °F 50% 29.98 in 10.0 mi SSE 10.4 mph - N/A   Unknown
12:55 AM 48.2 °F - 28.4 °F 46% 29.97 in 10.0 mi SSE 10.4 mph - N/A   Unknown
1:15 AM 50.0 °F - 28.4 °F 43% 29.97 in 10.0 mi SSE 10.4 mph - N/A   Unknown
1:35 AM 48.2 °F - 30.2 °F 50% 29.96 in 10.0 mi SSE 10.4 mph - N/A   Unknown
1:55 AM 48.2 °F - 32.0 °F 54% 29.95 in 10.0 mi SE 11.5 mph - N/A   Unknown
2:15 AM 48.2 °F - 32.0 °F 54% 29.95 in 10.0 mi SSE 10.4 mph - N/A   Unknown
2:35 AM 48.2 °F - 32.0 °F 54% 29.95 in 10.0 mi SE 9.2 mph - N/A   Unknown
2:55 AM 48.2 °F - 32.0 °F 54% 29.94 in 10.0 mi SSE 8.1 mph - N/A   Unknown
3:15 AM 50.0 °F - 32.0 °F 50% 29.95 in 10.0 mi South 11.5 mph - N/A   Unknown
3:35 AM 50.0 °F - 32.0 °F 50% 29.94 in 10.0 mi SSE 8.1 mph - N/A   Unknown
3:55 AM 50.0 °F - 32.0 °F 50% 29.94 in 10.0 mi South 9.2 mph - N/A   Unknown
4:15 AM 50.0 °F - 32.0 °F 50% 29.93 in 10.0 mi South 11.5 mph - N/A   Unknown
4:35 AM 53.6 °F - 32.0 °F 44% 29.91 in 10.0 mi South 15.0 mph - N/A   Unknown
4:55 AM 53.6 °F - 28.4 °F 38% 29.89 in 10.0 mi SSE 15.0 mph - N/A   Unknown
5:15 AM 53.6 °F - 28.4 °F 38% 29.89 in 10.0 mi South 12.7 mph 19.6 mph N/A   Unknown
5:35 AM 53.6 °F - 28.4 °F 38% 29.89 in 10.0 mi South 16.1 mph 20.7 mph N/A   Unknown
5:55 AM 53.6 °F - 30.2 °F 41% 29.86 in 10.0 mi SSE 18.4 mph 25.3 mph N/A Rain Light Rain
6:15 AM 53.6 °F - 28.4 °F 38% 29.87 in 10.0 mi SSE 16.1 mph - N/A   Unknown
6:55 AM 53.6 °F - 28.4 °F 38% 29.84 in 10.0 mi South 17.3 mph - N/A   Unknown
7:15 AM 55.4 °F - 28.4 °F 36% 29.82 in 10.0 mi South 17.3 mph 25.3 mph N/A   Unknown
7:35 AM 55.4 °F - 30.2 °F 38% 29.81 in 10.0 mi South 18.4 mph 25.3 mph N/A   Unknown
7:55 AM 55.4 °F - 32.0 °F 41% 29.81 in 10.0 mi South 20.7 mph 24.2 mph N/A   Unknown
8:15 AM 57.2 °F - 32.0 °F 38% 29.80 in 10.0 mi South 24.2 mph 29.9 mph N/A   Unknown
8:35 AM 57.2 °F - 33.8 °F 41% 29.79 in 10.0 mi South 21.9 mph 27.6 mph N/A   Unknown
8:55 AM 57.2 °F - 35.6 °F 44% 29.78 in 10.0 mi South 21.9 mph 27.6 mph N/A   Unknown
9:15 AM 59.0 °F - 37.4 °F 45% 29.78 in 10.0 mi South 21.9 mph 25.3 mph N/A   Unknown
9:35 AM 59.0 °F - 37.4 °F 45% 29.77 in 10.0 mi SSW 23.0 mph 29.9 mph N/A   Unknown
9:55 AM 59.0 °F - 39.2 °F 48% 29.78 in 10.0 mi SSW 20.7 mph 31.1 mph N/A   Unknown
10:15 AM 62.6 °F - 39.2 °F 42% 29.76 in 10.0 mi SSW 23.0 mph 27.6 mph N/A   Unknown
10:35 AM 62.6 °F - 39.2 °F 42% 29.76 in 10.0 mi SSW 20.7 mph 29.9 mph N/A   Unknown
10:55 AM 64.4 °F - 39.2 °F 40% 29.75 in 10.0 mi SSW 20.7 mph 26.5 mph N/A   Unknown
11:15 AM 66.2 °F - 39.2 °F 37% 29.74 in 10.0 mi SSW 25.3 mph 31.1 mph N/A   Unknown
11:35 AM 68.0 °F - 41.0 °F 37% 29.74 in 10.0 mi SW 18.4 mph 29.9 mph N/A   Unknown
11:55 AM 69.8 °F - 41.0 °F 35% 29.74 in 10.0 mi SSW 17.3 mph 25.3 mph N/A   Unknown
12:15 PM 73.4 °F - 41.0 °F 31% 29.73 in 10.0 mi SW 18.4 mph - N/A   Unknown
12:35 PM 75.2 °F - 41.0 °F 29% 29.72 in 10.0 mi SW 19.6 mph 24.2 mph N/A   Clear
12:55 PM 77.0 °F - 42.8 °F 29% 29.72 in 10.0 mi SW 13.8 mph 23.0 mph N/A   Partly Cloudy
1:15 PM 80.6 °F - 44.6 °F 28% 29.70 in 10.0 mi SW 16.1 mph 21.9 mph N/A   Clear
1:35 PM 84.2 °F - 44.6 °F 25% 29.69 in 10.0 mi SW 17.3 mph 21.9 mph N/A   Clear
1:55 PM 86.0 °F - 46.4 °F 25% 29.68 in 10.0 mi SSW 15.0 mph 20.7 mph N/A   Clear
2:15 PM 89.6 °F - 44.6 °F 21% 29.67 in 10.0 mi West 19.6 mph 29.9 mph N/A   Partly Cloudy
2:35 PM 89.6 °F - 44.6 °F 21% 29.67 in 10.0 mi West 19.6 mph 32.2 mph N/A   Clear
3:35 PM 89.6 °F - 44.6 °F 21% 29.66 in 10.0 mi West 23.0 mph 35.7 mph N/A   Clear
3:55 PM 89.6 °F - 41.0 °F 18% 29.66 in 10.0 mi WNW 31.1 mph 38.0 mph N/A   Clear
4:15 PM 89.6 °F - 39.2 °F 17% 29.66 in 10.0 mi WNW 25.3 mph 36.8 mph N/A   Clear
4:35 PM 89.6 °F - 41.0 °F 18% 29.66 in 10.0 mi WNW 23.0 mph 34.5 mph N/A   Clear
4:55 PM 89.6 °F - 41.0 °F 18% 29.66 in 10.0 mi WNW 26.5 mph 39.1 mph N/A   Clear
5:15 PM 89.6 °F - 41.0 °F 18% 29.66 in 10.0 mi WNW 24.2 mph 33.4 mph N/A   Clear
5:35 PM 87.8 °F - 41.0 °F 19% 29.66 in 10.0 mi WNW 27.6 mph 38.0 mph N/A   Clear
5:55 PM 87.8 °F - 42.8 °F 21% 29.66 in 10.0 mi WNW 24.2 mph 35.7 mph N/A   Clear
6:35 PM 86.0 °F - 42.8 °F 22% 29.66 in 10.0 mi WNW 20.7 mph 28.8 mph N/A   Clear
7:15 PM 86.0 °F - 44.6 °F 23% 29.67 in 10.0 mi WNW 16.1 mph 23.0 mph N/A   Clear
7:35 PM 84.2 °F - 44.6 °F 25% 29.67 in 10.0 mi WNW 12.7 mph 20.7 mph N/A   Clear
7:55 PM 84.2 °F - 44.6 °F 25% 29.67 in 10.0 mi NW 12.7 mph - N/A   Clear
8:15 PM 80.6 °F - 46.4 °F 30% 29.68 in 10.0 mi WNW 9.2 mph - N/A   Clear
8:35 PM 73.4 °F - 46.4 °F 38% 29.69 in 10.0 mi WNW 8.1 mph - N/A   Clear
8:55 PM 73.4 °F - 44.6 °F 36% 29.69 in 10.0 mi WNW 5.8 mph - N/A   Clear
9:15 PM 73.4 °F - 46.4 °F 38% 29.68 in 10.0 mi West 4.6 mph - N/A   Clear
9:35 PM 71.6 °F - 44.6 °F 38% 29.69 in 10.0 mi WNW 3.5 mph - N/A   Clear
9:55 PM 69.8 °F - 44.6 °F 40% 29.69 in 10.0 mi SW 4.6 mph - N/A   Clear
10:15 PM 66.2 °F - 44.6 °F 46% 29.69 in 10.0 mi WSW 4.6 mph - N/A   Clear
10:35 PM 68.0 °F - 44.6 °F 43% 29.69 in 10.0 mi Calm Calm - N/A   Clear
10:55 PM 66.2 °F - 44.6 °F 46% 29.69 in 10.0 mi South 3.5 mph - N/A   Clear
11:15 PM 64.4 °F - 42.8 °F 45% 29.69 in 10.0 mi South 3.5 mph - N/A   Clear
11:35 PM 60.8 °F - 44.6 °F 55% 29.68 in 10.0 mi South 5.8 mph - N/A   Clear
11:55 PM 59.0 °F - 44.6 °F 59% 29.68 in 10.0 mi South 5.8 mph - N/A   Clear